This is the latest recevied weather packets stored in our database for station/object SQ9SMC-13. If no packets are shown the sender has not sent any weather packets the latest 10 day(s).
| Time | Temp. | Humidity | Pressure | Rain* | Wind** | Luminosity | Snow |
|---|---|---|---|---|---|---|---|
| 1777364702 | 10° C | 32% | 1026 hPa | 0 mm | - | 511 W/m² | - |
| 1777364402 | 9.44° C | 31% | 1026.3 hPa | 0 mm | - | 502 W/m² | - |
| 1777364104 | 8.89° C | 33% | 1026.2 hPa | 0 mm | - | 492 W/m² | - |
| 1777363806 | 9.44° C | 34% | 1026.1 hPa | 0 mm | - | 483 W/m² | - |
| 1777363504 | 8.89° C | 35% | 1026 hPa | 0 mm | - | 475 W/m² | - |
| 1777363205 | 8.89° C | 36% | 1026 hPa | 0 mm | - | 464 W/m² | - |
| 1777362906 | 9.44° C | 34% | 1026.2 hPa | 0 mm | - | 453 W/m² | - |
| 1777362604 | 8.89° C | 37% | 1026.2 hPa | 0 mm | - | 442 W/m² | - |
| 1777362303 | 8.89° C | 37% | 1026.1 hPa | 0 mm | - | 430 W/m² | - |
| 1777362003 | 8.89° C | 39% | 1026 hPa | 0 mm | - | 418 W/m² | - |
| 1777361703 | 8.89° C | 39% | 1025.8 hPa | 0 mm | - | 409 W/m² | - |
| 1777361403 | 8.33° C | 40% | 1026 hPa | 0 mm | - | 398 W/m² | - |
| 1777361105 | 8.33° C | 39% | 1025.8 hPa | 0 mm | - | 386 W/m² | - |
| 1777360803 | 8.33° C | 40% | 1026 hPa | 0 mm | - | 373 W/m² | - |
| 1777360503 | 8.33° C | 41% | 1025.9 hPa | 0 mm | - | 362 W/m² | - |
| 1777360205 | 7.78° C | 40% | 1025.9 hPa | 0 mm | - | 352 W/m² | - |
| 1777359904 | 7.22° C | 42% | 1025.9 hPa | 0 mm | - | 339 W/m² | - |
| 1777359606 | 7.22° C | 44% | 1025.9 hPa | 0 mm | - | 327 W/m² | - |
| 1777359303 | 7.22° C | 44% | 1025.9 hPa | 0 mm | - | 315 W/m² | - |
| 1777359005 | 7.22° C | 43% | 1026 hPa | 0 mm | - | 304 W/m² | - |
| 1777358706 | 7.22° C | 45% | 1025.9 hPa | 0 mm | - | 291 W/m² | - |
| 1777358403 | 7.22° C | 45% | 1026.1 hPa | 0 mm | - | 278 W/m² | - |
| 1777358104 | 7.22° C | 45% | 1025.9 hPa | 0 mm | - | 266 W/m² | - |
| 1777357806 | 7.22° C | 48% | 1025.9 hPa | 0 mm | - | 253 W/m² | - |
| 1777357504 | 6.67° C | 49% | 1025.9 hPa | 0 mm | - | 245 W/m² | - |
* Rain latest hour (hover to see other rain measurements)
** Current wind speed in m/s (hover to see current wind gust speed)